Retour au catalogue

STARLINK-32580

ActifCommunicationsVLEO
NORAD 62075·PAYLOAD·🇺🇸 United States

Lancé Nov 24, 2024 depuis Vandenberg Space Force Base

Loading…

Prochains Passages (prochaines 24 heures)

TLE

FraisSource: CelesTrak SupGP

Époque: Sep 15, 2026, 02:53 UTC

1 62075C 24217U   26258.12062500  .00036703  00000+0  10845-2 0  2581
2 62075  53.1611  20.7456 0001260  88.2610 172.0149 15.34368342    11

Suivez STARLINK-32580 en temps réel avec AllMySat

Download on the App Store